[[{"header":{"parameterUnit":"m.s-1","parameterCategory":2,"la1":30.2991,"la2":30.254,"lo1":-89.0895,"lo2":-89.0444,"dy":0.0017,"dx":0.0017,"nx":28,"ny":28,"refTime":"2025-08-30T21:00:00:Z","depth":"0","parameterNumber":2,"parameterNumberName":"U-component_of_CURRENTS"},"data":[0,0,0,0,0,0,0,0,0,0,0,0,0,0,0,0,0,0,0,0,0,0,0,0,0,0,0,0,0,0,0,0,0,0,0,0,0,0,0,0,0,0,0,0,0,0,0,0,0,0,0,0,0,0,0,0,0,0,0.2299,0.2299,0,0.2346,0.2346,0.2347,0.2353,0.2352,0.2352,0.2352,0.236,0.2361,0.2361,0,0,0,0,0,0,0,0,0,0,0,0,0,0.2221,0.2222,0.2299,0.2299,0.23,0.2346,0.2346,0.2347,0.2353,0.2352,0.2352,0.2352,0.236,0.2361,0.2361,0,0,0,0,0,0,0,0,0,0,0,0,0,0.2259,0.2223,0.2298,0.2309,0.2311,0.2346,0.2346,0.2347,0.2353,0.2352,0.2352,0.2351,0.236,0.236,0.2361,0.2377,0,0,0.2364,0.2364,0,0,0,0,0,0,0,0,0.2257,0.2262,0.2307,0.2309,0.231,0.2344,0.2322,0.2356,0.2353,0.2336,0.2352,0.2351,0.2352,0.2354,0.2363,0.2378,0.2378,0.2364,0.2364,0.2365,0.2365,0,0,0,0,0,0,0,0.2254,0.226,0.2316,0.2308,0.231,0.2314,0.2319,0.2329,0.2345,0.2337,0.2338,0.2345,0.2353,0.2362,0.2363,0.2378,0.2364,0.2365,0.2365,0.2366,0.2417,0.2418,0,0,0,0,0,0,0.2251,0.2258,0.2315,0.2318,0.2283,0.2316,0.2321,0.2333,0.2346,0.2348,0.2346,0.2345,0.2361,0.2362,0.2363,0.2395,0.2365,0.2366,0.2366,0.2416,0.2417,0.2418,0,0,0,0,0,0,0.2249,0.2256,0.2313,0.2289,0.2297,0.2318,0.2331,0.2334,0.2345,0.2353,0.2354,0.2354,0.236,0.2362,0.2378,0.2394,0.2366,0.2367,0.2415,0.2416,0.2417,0.245,0,0,0,0,0,0,0.2247,0.2255,0.2264,0.2289,0.2298,0.2339,0.2332,0.2335,0.2351,0.2351,0.236,0.236,0.236,0.2377,0.2379,0.2395,0.2367,0.2414,0.2416,0.2417,0.2447,0.2452,0.2456,0,0,0,0,0,0.2244,0.2256,0.2264,0.2271,0.2309,0.2339,0.2345,0.2357,0.2352,0.2363,0.2368,0.236,0.2389,0.2379,0.2381,0.2397,0.2413,0.2415,0.2417,0.2446,0.2451,0.2455,0,0,0,0,0,0,0.2221,0.2259,0.2268,0.2289,0.2315,0.2341,0.2353,0.236,0.2374,0.2374,0.2372,0.2374,0.2397,0.2392,0.2381,0.2417,0.2399,0.2402,0.242,0.2425,0.2429,0.2412,0.2368,0,0,0,0,0,0.2223,0.2243,0.2278,0.2293,0.2309,0.2331,0.2345,0.2357,0.2374,0.2379,0.2385,0.2393,0.2408,0.2411,0.2425,0.2442,0.2446,0.2453,0.2457,0.2461,0.2448,0.2483,0.2489,0.2424,0.2424,0.2424,0,0,0.2214,0.224,0.2249,0.229,0.231,0.2335,0.2338,0.2365,0.2381,0.2378,0.2397,0.2411,0.2417,0.2441,0.245,0.2437,0.2484,0.2463,0.2466,0.2451,0.2485,0.2492,0.2497,0.2426,0.2425,0.2425,0,0,0.2209,0.2236,0.2252,0.228,0.2319,0.234,0.2348,0.2382,0.2393,0.2418,0.2423,0.2442,0.246,0.247,0.2476,0.2509,0.2509,0.2516,0.2517,0.2551,0.2557,0.2561,0.2586,0.2593,0.2512,0.2512,0.2512,0,0.2196,0.2228,0.226,0.2286,0.2307,0.2341,0.2362,0.2384,0.2416,0.2425,0.2427,0.2464,0.2472,0.2497,0.2508,0.2517,0.2533,0.2499,0.2557,0.2561,0.2566,0.259,0.2597,0.2514,0.2514,0.2514,0.2514,0,0.2205,0.2235,0.2249,0.2294,0.2318,0.2348,0.2384,0.2407,0.2425,0.2444,0.2477,0.2496,0.2512,0.2526,0.2525,0.256,0.2562,0.2564,0.2543,0.2574,0.2598,0.2604,0.2517,0.2516,0.2516,0.2515,0,0,0.2163,0.2241,0.2244,0.2263,0.233,0.2341,0.2381,0.242,0.2435,0.247,0.249,0.2523,0.2533,0.2539,0.2551,0.2575,0.2627,0.2578,0.2579,0.26,0.2701,0.2681,0.2686,0.2644,0.2645,0.2646,0.271,0,0.2162,0.2199,0.2248,0.2278,0.2299,0.2351,0.2377,0.2413,0.2451,0.2481,0.251,0.2537,0.2539,0.2552,0.2579,0.2618,0.2644,0.2609,0.2669,0.267,0.2647,0.2693,0.2614,0.2662,0.2716,0.2717,0.2718,0,0.2153,0.2182,0.2212,0.2265,0.2278,0.2299,0.2344,0.2377,0.2437,0.247,0.251,0.2538,0.258,0.2578,0.2651,0.2631,0.2662,0.2688,0.2692,0.266,0.2662,0.2638,0.2672,0.2615,0.2728,0.2727,0.2726,0,0.2087,0.2152,0.217,0.2191,0.2257,0.2271,0.2302,0.2362,0.2406,0.2464,0.2508,0.2553,0.2596,0.2634,0.2693,0.2678,0.2776,0.2764,0.2773,0.2772,0.2707,0.2698,0.2685,0.2811,0.2811,0.2811,0.2811,0,0.2066,0.2078,0.2135,0.2142,0.2163,0.2213,0.2248,0.2295,0.2376,0.2424,0.2491,0.2544,0.2615,0.2683,0.2709,0.2769,0.2795,0.2776,0.279,0.2717,0.2709,0.2656,0.262,0.2813,0.2813,0.2812,0.2812,0,0.2003,0.2044,0.2066,0.212,0.2137,0.2142,0.2234,0.226,0.2345,0.2416,0.244,0.2563,0.2644,0.2714,0.2796,0.2802,0.2774,0.286,0.2766,0.2766,0.2691,0.266,0.2549,0.2469,0.2866,0.2866,0.2866,0,0.1981,0.1982,0.2034,0.2045,0.2075,0.2105,0.2133,0.223,0.2276,0.2419,0.2447,0.2568,0.2643,0.2771,0.2805,0.2859,0.2774,0.2805,0.2751,0.2679,0.2655,0.2541,0.2473,0.2685,0.2684,0.2683,0.2682,0,0.1939,0.1953,0.1971,0.1997,0.2019,0.2055,0.2103,0.2145,0.225,0.2325,0.2429,0.2507,0.2652,0.2689,0.2777,0.2793,0.2665,0.278,0.2733,0.2531,0.2376,0.2309,0.2651,0.267,0.2672,0.2672,0.2673,0.2673,0.1906,0.1907,0.1927,0.1946,0.1969,0.1987,0.199,0.2056,0.2124,0.2209,0.2337,0.2415,0.2553,0.2673,0.2674,0.2636,0.2598,0.257,0.2547,0.2444,0.2327,0.2638,0.2655,0.2656,0.2657,0.2658,0.2659,0,0.1862,0.1865,0.1878,0.1889,0.1879,0.1919,0.1954,0.1942,0.1975,0.2089,0.2174,0.2292,0.2373,0.2459,0.2504,0.2425,0.2307,0.2358,0.2181,0.2133,0.2449,0.2402,0.2331,0.2331,0.2331,0.2331,0.2331,0.2331,0.1841,0.1825,0.1828,0.1793,0.1794,0.1757,0.1755,0.1757,0.1812,0.1863,0.1921,0.2022,0.2214,0.2338,0.2302,0.2248,0.2071,0.1987,0.1962,0.2207,0.2224,0.2241,0.2189,0.2074,0.2073,0.1564,0.156,0.1557]},{"header":{"parameterUnit":"m.s-1","parameterCategory":2,"la1":30.2991,"la2":30.254,"lo1":-89.0895,"lo2":-89.0444,"dy":0.0017,"dx":0.0017,"nx":28,"ny":28,"refTime":"2025-08-30T21:00:00:Z","depth":"0","parameterNumber":3,"parameterNumberName":"V-component_of_CURRENTS"},"data":[0,0,0,0,0,0,0,0,0,0,0,0,0,0,0,0,0,0,0,0,0,0,0,0,0,0,0,0,0,0,0,0,0,0,0,0,0,0,0,0,0,0,0,0,0,0,0,0,0,0,0,0,0,0,0,0,0,0,-0.0233,-0.0233,0,-0.0302,-0.0303,-0.0304,-0.0357,-0.0357,-0.0358,-0.0358,-0.047,-0.0473,-0.0475,0,0,0,0,0,0,0,0,0,0,0,0,0,-0.0169,-0.017,-0.0233,-0.0233,-0.0234,-0.0302,-0.0303,-0.0304,-0.0357,-0.0357,-0.0358,-0.0358,-0.0469,-0.0472,-0.0475,0,0,0,0,0,0,0,0,0,0,0,0,0,-0.0214,-0.017,-0.0233,-0.0268,-0.0271,-0.0301,-0.0303,-0.0304,-0.0357,-0.0357,-0.0358,-0.0358,-0.0468,-0.0472,-0.0476,-0.0489,0,0,-0.0488,-0.049,0,0,0,0,0,0,0,0,-0.0212,-0.0217,-0.0262,-0.0265,-0.027,-0.032,-0.0321,-0.0368,-0.0357,-0.0326,-0.0358,-0.0359,-0.0422,-0.043,-0.0443,-0.0494,-0.0499,-0.0488,-0.0491,-0.0492,-0.0493,0,0,0,0,0,0,0,-0.0208,-0.0214,-0.0261,-0.0262,-0.0267,-0.0287,-0.0295,-0.033,-0.0372,-0.0329,-0.0332,-0.0338,-0.0425,-0.0439,-0.0446,-0.0501,-0.0488,-0.0492,-0.0494,-0.0496,-0.0557,-0.0556,0,0,0,0,0,0,-0.0195,-0.0211,-0.0259,-0.0263,-0.024,-0.0288,-0.0296,-0.0304,-0.0371,-0.0381,-0.0337,-0.034,-0.0432,-0.0442,-0.0451,-0.045,-0.0492,-0.0496,-0.0498,-0.0557,-0.0556,-0.0556,0,0,0,0,0,0,-0.0194,-0.0199,-0.0256,-0.0237,-0.0246,-0.0288,-0.0297,-0.0305,-0.0318,-0.0376,-0.0388,-0.0341,-0.0433,-0.0445,-0.0473,-0.0455,-0.0498,-0.0501,-0.0558,-0.0557,-0.0556,-0.0461,0,0,0,0,0,0,-0.0192,-0.0198,-0.0197,-0.0237,-0.0247,-0.0266,-0.0297,-0.0306,-0.032,-0.0324,-0.0384,-0.0395,-0.0435,-0.0467,-0.0477,-0.0462,-0.0504,-0.0559,-0.0558,-0.0556,-0.0465,-0.0457,-0.045,0,0,0,0,0,-0.0189,-0.0181,-0.0197,-0.0203,-0.0245,-0.0265,-0.0272,-0.0305,-0.0319,-0.032,-0.0357,-0.0393,-0.0465,-0.0469,-0.0482,-0.0467,-0.056,-0.0558,-0.0556,-0.0469,-0.0459,-0.045,0,0,0,0,0,0,-0.0149,-0.0187,-0.0205,-0.0209,-0.0232,-0.0274,-0.0274,-0.0297,-0.0327,-0.033,-0.0386,-0.04,-0.042,-0.0455,-0.0458,-0.048,-0.0517,-0.0518,-0.0446,-0.0438,-0.043,-0.0402,-0.0508,0,0,0,0,0,-0.014,-0.0147,-0.0184,-0.0186,-0.0194,-0.0233,-0.0244,-0.0266,-0.0298,-0.0311,-0.0352,-0.0392,-0.0422,-0.0438,-0.0476,-0.0486,-0.0511,-0.0484,-0.0476,-0.047,-0.0455,-0.0475,-0.0467,-0.055,-0.055,-0.055,0,0,-0.0125,-0.0146,-0.015,-0.0178,-0.0199,-0.0199,-0.0241,-0.0251,-0.0249,-0.0319,-0.0327,-0.0371,-0.0421,-0.0434,-0.0445,-0.046,-0.0458,-0.0467,-0.0461,-0.045,-0.0472,-0.0464,-0.0457,-0.0549,-0.0549,-0.0549,0,0,-0.0091,-0.0115,-0.0107,-0.0123,-0.0147,-0.0169,-0.0167,-0.0204,-0.0218,-0.0237,-0.0281,-0.0304,-0.0361,-0.0381,-0.0401,-0.0372,-0.0422,-0.0391,-0.0324,-0.0344,-0.0337,-0.0331,-0.0345,-0.0342,-0.0381,-0.0381,-0.0381,0,-0.0069,-0.0069,-0.0106,-0.01,-0.0101,-0.0149,-0.0133,-0.0152,-0.0193,-0.0196,-0.0228,-0.0288,-0.0331,-0.0332,-0.0321,-0.0353,-0.0374,-0.0354,-0.0332,-0.0327,-0.0322,-0.0339,-0.0336,-0.0376,-0.0377,-0.0377,-0.0377,0,-0.0031,-0.003,-0.0023,-0.0032,-0.0037,-0.0032,-0.0059,-0.0067,-0.0093,-0.0116,-0.0133,-0.019,-0.0223,-0.0239,-0.0273,-0.0258,-0.0287,-0.0323,-0.0351,-0.0308,-0.0329,-0.0327,-0.0369,-0.0371,-0.0372,-0.0373,0,0,0.0013,0.0006,0.0008,0.0019,0.0001,0.0002,0.0013,0.0009,0.0021,-0.0024,-0.0014,-0.0061,-0.0096,-0.012,-0.0165,-0.0175,-0.0164,-0.0227,-0.023,-0.0232,-0.0204,-0.0217,-0.0217,-0.02,-0.0199,-0.0199,-0.0228,0,0.0055,0.0086,0.007,0.0105,0.0121,0.0092,0.0105,0.0095,0.0075,0.007,0.0023,0.0004,-0.0049,-0.0066,-0.0081,-0.015,-0.0157,-0.0152,-0.0252,-0.0255,-0.0265,-0.0215,-0.0186,-0.0208,-0.0227,-0.0227,-0.0227,0,0.0099,0.0113,0.0154,0.0173,0.0178,0.019,0.0208,0.0213,0.0196,0.018,0.016,0.0108,0.0089,0.0028,-0.0041,-0.0038,-0.0104,-0.0156,-0.016,-0.0202,-0.0265,-0.0257,-0.0206,-0.0311,-0.0225,-0.0225,-0.0225,0,0.0148,0.0175,0.0212,0.0217,0.0227,0.0243,0.0249,0.0245,0.0265,0.0248,0.0254,0.0207,0.0184,0.0103,-0.0007,-0.0026,-0.0089,-0.0137,-0.0205,-0.0207,-0.0215,-0.0219,-0.0268,-0.0175,-0.0175,-0.0175,-0.0175,0,0.0196,0.0225,0.0236,0.0253,0.0302,0.0291,0.0339,0.0334,0.0344,0.0379,0.0312,0.0331,0.0201,0.0141,0.0032,-0.0072,-0.0062,-0.0174,-0.0208,-0.0182,-0.0182,-0.0303,-0.038,-0.0176,-0.0176,-0.0176,-0.0176,0,0.0237,0.0242,0.0286,0.031,0.0323,0.0355,0.0398,0.0432,0.0429,0.0472,0.047,0.043,0.0358,0.0223,0.0093,-0.0014,-0.0185,-0.0167,-0.0124,-0.0152,-0.0315,-0.0387,-0.0472,-0.0534,-0.0239,-0.0239,-0.024,0,0.0257,0.0283,0.033,0.0362,0.0373,0.042,0.0456,0.0472,0.0519,0.0542,0.0574,0.0518,0.0509,0.0318,0.012,-0.006,-0.0184,-0.017,-0.02,-0.0299,-0.0405,-0.0449,-0.0499,-0.0175,-0.0174,-0.0174,-0.0174,0,0.0299,0.0313,0.0349,0.0417,0.0461,0.0524,0.0578,0.0633,0.0658,0.0706,0.0763,0.0757,0.0578,0.0425,0.016,0.0022,-0.0241,-0.0172,-0.0285,-0.0355,-0.0396,-0.048,-0.0185,-0.0172,-0.0173,-0.0173,-0.0173,-0.0173,0.0327,0.0362,0.0411,0.0479,0.0537,0.062,0.0687,0.0763,0.0856,0.0941,0.0919,0.0949,0.0698,0.036,0.0144,-0.0214,-0.0235,-0.0316,-0.0394,-0.0427,-0.0487,-0.0183,-0.0207,-0.0208,-0.0208,-0.0208,-0.0208,0,0.0365,0.0408,0.0472,0.0555,0.0632,0.0654,0.0769,0.085,0.0982,0.1061,0.1125,0.1039,0.0728,0.0377,-0.0103,-0.037,-0.048,-0.0525,-0.0579,-0.0621,-0.0349,-0.0347,-0.039,-0.039,-0.039,-0.0389,-0.0389,-0.0389,0.0385,0.0453,0.049,0.0622,0.0686,0.0801,0.0875,0.1001,0.1095,0.1224,0.1264,0.1265,0.1013,0.0159,-0.0422,-0.0574,-0.0779,-0.0816,-0.0938,-0.0751,-0.0737,-0.0724,-0.0738,-0.0863,-0.0863,-0.1153,-0.1156,-0.1158]}],[{"header":{"parameterUnit":"m.s-1","parameterCategory":2,"la1":30.2991,"la2":30.254,"lo1":-89.0895,"lo2":-89.0444,"dy":0.0017,"dx":0.0017,"nx":28,"ny":28,"refTime":"2025-08-30T21:00:00:Z","depth":"2","parameterNumber":2,"parameterNumberName":"U-component_of_CURRENTS"},"data":[0,0,0,0,0,0,0,0,0,0,0,0,0,0,0,0,0,0,0,0,0,0,0,0,0,0,0,0,0,0,0,0,0,0,0,0,0,0,0,0,0,0,0,0,0,0,0,0,0,0,0,0,0,0,0,0,0,0,0.1902,0.1903,0,0.1939,0.1939,0.1939,0.1949,0.1949,0.1949,0.1949,0.1979,0.198,0.198,0,0,0,0,0,0,0,0,0,0,0,0,0,0.1838,0.1839,0.1902,0.1903,0.1904,0.1939,0.1939,0.1939,0.1949,0.1949,0.1949,0.1949,0.1979,0.1979,0.198,0,0,0,0,0,0,0,0,0,0,0,0,0,0.1866,0.1839,0.1902,0.1916,0.1918,0.1939,0.1939,0.1939,0.1949,0.1949,0.1949,0.1949,0.1978,0.1979,0.198,0.1983,0,0,0.1983,0.1984,0,0,0,0,0,0,0,0,0.1864,0.1868,0.1913,0.1915,0.1917,0.1943,0.1927,0.1955,0.1949,0.1933,0.1949,0.1949,0.1968,0.197,0.1972,0.1985,0.1986,0.1984,0.1984,0.1985,0.1985,0,0,0,0,0,0,0,0.1862,0.1866,0.1913,0.1914,0.1916,0.1919,0.1923,0.1932,0.1946,0.1935,0.1936,0.1946,0.1969,0.1971,0.1972,0.1986,0.1984,0.1984,0.1985,0.1985,0.2055,0.2056,0,0,0,0,0,0,0.1865,0.1864,0.1912,0.1915,0.1894,0.192,0.1924,0.1931,0.1947,0.195,0.1946,0.1946,0.1969,0.1971,0.1974,0.2014,0.1985,0.1986,0.1986,0.2053,0.2055,0.2056,0,0,0,0,0,0,0.1863,0.1869,0.1911,0.1893,0.1899,0.1922,0.1929,0.1932,0.1945,0.1956,0.1958,0.1958,0.1969,0.1972,0.1993,0.2014,0.1986,0.1987,0.2052,0.2054,0.2056,0.2072,0,0,0,0,0,0,0.1861,0.1868,0.1875,0.1893,0.1901,0.1932,0.1929,0.1933,0.1952,0.1953,0.1967,0.1969,0.1969,0.1992,0.1994,0.2015,0.1988,0.205,0.2053,0.2055,0.207,0.2074,0.2078,0,0,0,0,0,0.1859,0.1869,0.1875,0.1881,0.1909,0.1933,0.1937,0.1951,0.1953,0.1962,0.1971,0.1969,0.2008,0.1993,0.1996,0.2017,0.2049,0.2052,0.2055,0.2068,0.2073,0.2078,0,0,0,0,0,0,0.1846,0.1872,0.1878,0.1896,0.1918,0.1937,0.1949,0.1957,0.1971,0.1974,0.1978,0.1982,0.2014,0.2013,0.1996,0.2046,0.2032,0.2035,0.2041,0.2046,0.205,0.2052,0.1989,0,0,0,0,0,0.1846,0.186,0.1886,0.1902,0.1913,0.1932,0.1944,0.1955,0.1971,0.1978,0.1991,0.2007,0.2025,0.2033,0.2051,0.2069,0.2076,0.2089,0.2093,0.2096,0.2102,0.2136,0.2143,0.2065,0.2065,0.2065,0,0,0.1845,0.1863,0.187,0.19,0.1916,0.1935,0.1939,0.1963,0.1979,0.1979,0.2006,0.2024,0.2036,0.2063,0.2077,0.2064,0.212,0.2099,0.2102,0.2106,0.2139,0.2147,0.2153,0.2067,0.2067,0.2067,0,0,0.1847,0.1867,0.1876,0.1899,0.1931,0.1944,0.1955,0.1983,0.1995,0.2022,0.2032,0.206,0.2084,0.2099,0.2107,0.2143,0.2145,0.2155,0.2169,0.2202,0.2208,0.2214,0.222,0.2226,0.215,0.215,0.215,0,0.1841,0.1863,0.1884,0.1904,0.1924,0.195,0.1967,0.1984,0.2017,0.2033,0.2035,0.2091,0.2101,0.2134,0.2149,0.2152,0.2164,0.2146,0.2206,0.2212,0.2218,0.2223,0.2229,0.2151,0.2151,0.2151,0.2151,0,0.1852,0.1873,0.1885,0.1916,0.1938,0.1963,0.1992,0.2018,0.2039,0.2059,0.2105,0.2123,0.2155,0.2168,0.2168,0.2217,0.221,0.2211,0.219,0.2226,0.2229,0.2236,0.2153,0.2152,0.2152,0.2152,0,0,0.1825,0.1878,0.1884,0.1898,0.195,0.1964,0.2002,0.2039,0.2063,0.2101,0.2134,0.2174,0.2193,0.2204,0.2215,0.2243,0.2287,0.2245,0.2247,0.2244,0.2348,0.2315,0.2318,0.2303,0.2305,0.2306,0.2329,0,0.1826,0.1854,0.1888,0.1918,0.1934,0.198,0.2008,0.2048,0.2085,0.2125,0.2158,0.2196,0.2202,0.2222,0.2252,0.2285,0.2308,0.228,0.232,0.2321,0.2281,0.2327,0.2151,0.2155,0.2335,0.2336,0.2337,0,0.1822,0.1843,0.1868,0.1914,0.1926,0.195,0.2005,0.2036,0.2102,0.2135,0.2186,0.2216,0.2266,0.2265,0.2332,0.2316,0.2337,0.2356,0.2357,0.2327,0.2301,0.2152,0.216,0.2348,0.2347,0.2346,0.2345,0,0.1779,0.1828,0.1844,0.1863,0.1919,0.1941,0.1974,0.2038,0.208,0.2146,0.2191,0.2243,0.2286,0.2322,0.2369,0.2356,0.2439,0.2419,0.2405,0.2401,0.226,0.2242,0.2471,0.2471,0.2471,0.2471,0.2471,0,0.1763,0.1777,0.1824,0.1834,0.186,0.1907,0.1949,0.1997,0.2076,0.2123,0.2191,0.2241,0.2311,0.2366,0.2384,0.2419,0.2451,0.2419,0.2416,0.226,0.2242,0.2417,0.2411,0.2471,0.2471,0.2471,0.2471,0,0.1718,0.175,0.177,0.1822,0.1841,0.1858,0.1944,0.1974,0.2058,0.2125,0.2153,0.2265,0.2331,0.2388,0.2453,0.2444,0.2471,0.2476,0.2279,0.2253,0.2399,0.2394,0.2446,0.2445,0.2444,0.2444,0.2443,0,0.17,0.1703,0.1752,0.1763,0.179,0.183,0.1859,0.1953,0.1994,0.2128,0.2152,0.2263,0.2316,0.2405,0.2414,0.2434,0.2478,0.2277,0.2223,0.241,0.2402,0.2397,0.2392,0.203,0.2026,0.2023,0.2021,0,0.1663,0.1679,0.1695,0.1721,0.1747,0.178,0.1829,0.1865,0.1965,0.2033,0.2116,0.2177,0.2279,0.2236,0.2288,0.2272,0.2255,0.2215,0.2471,0.2074,0.2024,0.2014,0.2022,0.1993,0.1996,0.1998,0.1999,0.2,0.1634,0.1634,0.1653,0.1671,0.1698,0.1711,0.1713,0.177,0.1827,0.1895,0.2004,0.2032,0.2083,0.2075,0.203,0.1998,0.2149,0.2045,0.2052,0.2063,0.2021,0.1974,0.1924,0.1926,0.1928,0.193,0.1932,0,0.1587,0.1591,0.1603,0.1612,0.1603,0.1649,0.1674,0.1656,0.1673,0.1757,0.1815,0.1712,0.1712,0.1755,0.1675,0.1694,0.1654,0.1617,0.1541,0.1571,0.1598,0.1529,0.1303,0.1301,0.1299,0.1297,0,0,0.1563,0.1545,0.1545,0.151,0.1517,0.1484,0.1478,0.1468,0.1495,0.149,0.1495,0.1637,0.1711,0.1476,0.1466,0.1364,0.1447,0.1313,0.1825,0.1766,0.1789,0.1863,0.1796,0,0,0,0,0]},{"header":{"parameterUnit":"m.s-1","parameterCategory":2,"la1":30.2991,"la2":30.254,"lo1":-89.0895,"lo2":-89.0444,"dy":0.0017,"dx":0.0017,"nx":28,"ny":28,"refTime":"2025-08-30T21:00:00:Z","depth":"2","parameterNumber":3,"parameterNumberName":"V-component_of_CURRENTS"},"data":[0,0,0,0,0,0,0,0,0,0,0,0,0,0,0,0,0,0,0,0,0,0,0,0,0,0,0,0,0,0,0,0,0,0,0,0,0,0,0,0,0,0,0,0,0,0,0,0,0,0,0,0,0,0,0,0,0,0,0.0085,0.0084,0,0.0036,0.0036,0.0035,-0.0006,-0.0006,-0.0007,-0.0007,-0.0101,-0.0103,-0.0105,0,0,0,0,0,0,0,0,0,0,0,0,0,0.0122,0.0122,0.0085,0.0084,0.0083,0.0036,0.0036,0.0035,-0.0006,-0.0006,-0.0007,-0.0008,-0.01,-0.0103,-0.0105,0,0,0,0,0,0,0,0,0,0,0,0,0,0.0094,0.0122,0.0085,0.0057,0.0054,0.0037,0.0036,0.0035,-0.0006,-0.0006,-0.0007,-0.0008,-0.01,-0.0103,-0.0106,-0.011,0,0,-0.0115,-0.0116,0,0,0,0,0,0,0,0,0.0095,0.0092,0.0062,0.0059,0.0056,0.002,0.0015,-0.0016,-0.0006,0.0017,-0.0007,-0.0008,-0.0064,-0.007,-0.0077,-0.0115,-0.0119,-0.0115,-0.0117,-0.0119,-0.0119,0,0,0,0,0,0,0,0.0097,0.0094,0.0066,0.0061,0.0057,0.004,0.0036,0.0009,-0.002,0.0015,0.0012,0.0006,-0.0067,-0.0074,-0.0079,-0.012,-0.0115,-0.0118,-0.012,-0.0121,-0.0196,-0.0196,0,0,0,0,0,0,0.0104,0.0096,0.0067,0.0064,0.0074,0.004,0.0035,0.0033,-0.0018,-0.0027,0.0007,0.0005,-0.0068,-0.0076,-0.0083,-0.0095,-0.0118,-0.0121,-0.0123,-0.0196,-0.0196,-0.0196,0,0,0,0,0,0,0.0106,0.0103,0.0069,0.0079,0.0073,0.0041,0.0038,0.0032,0.0022,-0.0024,-0.0033,0.0003,-0.0069,-0.0079,-0.0106,-0.0099,-0.0123,-0.0126,-0.0196,-0.0196,-0.0196,-0.0118,0,0,0,0,0,0,0.0107,0.0103,0.0105,0.0079,0.0073,0.0064,0.0038,0.0032,0.002,0.0016,-0.0031,-0.004,-0.007,-0.0101,-0.0109,-0.0104,-0.0128,-0.0195,-0.0196,-0.0196,-0.012,-0.0115,-0.0111,0,0,0,0,0,0.0109,0.0116,0.0105,0.0102,0.0076,0.0064,0.006,0.0034,0.002,0.0022,-0.0011,-0.0039,-0.0109,-0.0103,-0.0112,-0.0108,-0.0195,-0.0196,-0.0196,-0.0122,-0.0116,-0.0111,0,0,0,0,0,0,0.0133,0.0112,0.01,0.01,0.0085,0.0057,0.0056,0.0039,0.0015,0.0009,-0.0035,-0.0046,-0.007,-0.0102,-0.0094,-0.0134,-0.0159,-0.0161,-0.0099,-0.0094,-0.009,-0.0074,-0.013,0,0,0,0,0,0.014,0.0139,0.0116,0.0117,0.0112,0.0085,0.0077,0.0061,0.0036,0.0025,-0.0008,-0.0047,-0.0078,-0.0095,-0.0128,-0.0143,-0.0168,-0.0151,-0.0146,-0.0142,-0.0137,-0.0164,-0.0161,-0.0197,-0.0197,-0.0197,0,0,0.015,0.0138,0.0137,0.0122,0.0108,0.011,0.0079,0.0072,0.0071,0.0018,0.0006,-0.0031,-0.0079,-0.0098,-0.0112,-0.0123,-0.0144,-0.0142,-0.0138,-0.0136,-0.0164,-0.016,-0.0157,-0.0197,-0.0197,-0.0197,0,0,0.0174,0.016,0.0169,0.016,0.0144,0.0129,0.013,0.0105,0.0091,0.0076,0.0036,0.0007,-0.004,-0.0068,-0.009,-0.0082,-0.0119,-0.0099,-0.0061,-0.0086,-0.0082,-0.008,-0.0098,-0.0097,-0.0096,-0.0096,-0.0095,0,0.0186,0.0193,0.0171,0.0178,0.0176,0.0142,0.0155,0.0139,0.0108,0.0099,0.0079,0.0014,-0.0024,-0.0046,-0.0045,-0.0069,-0.0089,-0.0072,-0.0077,-0.0075,-0.0074,-0.0093,-0.0094,-0.0092,-0.0092,-0.0093,-0.0093,0,0.0216,0.0222,0.0228,0.0226,0.0223,0.0227,0.0206,0.0197,0.0174,0.0154,0.0126,0.0076,0.0038,0.0019,-0.001,-0.0022,-0.004,-0.0065,-0.0083,-0.0065,-0.0087,-0.0089,-0.0086,-0.0088,-0.0089,-0.009,0,0,0.0242,0.0248,0.025,0.0261,0.0249,0.0252,0.0252,0.0243,0.0245,0.0206,0.0203,0.0149,0.0119,0.0092,0.005,0.0026,0.0021,-0.001,-0.0013,-0.0013,-0.0029,-0.0043,-0.0047,-0.0003,-0.0003,-0.0004,-0.0044,0,0.0272,0.0301,0.0294,0.0323,0.0338,0.0314,0.0318,0.0304,0.0283,0.027,0.0217,0.0195,0.0147,0.0132,0.0102,0.0038,0.0017,0.0034,-0.006,-0.0062,-0.0065,-0.0049,-0.0029,-0.0064,-0.0046,-0.0047,-0.0047,0,0.0304,0.032,0.0355,0.0375,0.0379,0.0388,0.0392,0.0391,0.0362,0.0346,0.0315,0.027,0.0229,0.0186,0.0099,0.0112,0.0051,0.0001,-0.0002,-0.0044,-0.008,-0.0084,-0.0068,-0.0051,-0.005,-0.005,-0.005,0,0.0336,0.0364,0.0396,0.0401,0.0414,0.0423,0.0426,0.0411,0.0424,0.0394,0.04,0.0334,0.0309,0.0224,0.012,0.011,0.0024,-0.0005,-0.0074,-0.0075,-0.0092,-0.0095,-0.0062,-0.0062,-0.0062,-0.0061,-0.0061,0,0.037,0.0395,0.0413,0.0429,0.0468,0.046,0.0495,0.0484,0.0485,0.0509,0.0442,0.0447,0.0317,0.025,0.0147,0.0036,0.0044,-0.0061,-0.0086,-0.0064,-0.0064,-0.0085,-0.0088,-0.0063,-0.0063,-0.0062,-0.0062,0,0.04,0.0409,0.0449,0.0473,0.0485,0.0511,0.0551,0.0577,0.0566,0.0596,0.0593,0.0536,0.0449,0.0317,0.0179,0.0079,-0.0033,-0.0076,-0.0039,-0.0058,-0.0122,-0.012,-0.0152,-0.0153,-0.0154,-0.0154,-0.0155,0,0.0416,0.0439,0.0486,0.0516,0.0528,0.0569,0.0602,0.0614,0.0652,0.0655,0.0678,0.0606,0.0569,0.0365,0.0176,-0.0001,-0.003,-0.0105,-0.0125,-0.011,-0.0131,-0.0127,-0.0124,-0.0114,-0.0114,-0.0114,-0.0114,0,0.0449,0.0464,0.0498,0.0562,0.0605,0.0664,0.0712,0.0758,0.0774,0.0801,0.082,0.079,0.0598,0.0422,0.0173,0.005,-0.0077,-0.0112,-0.0106,-0.0094,-0.0077,-0.0097,-0.0094,-0.0115,-0.0115,-0.0115,-0.0115,-0.0115,0.0472,0.0504,0.0552,0.0614,0.067,0.0745,0.0801,0.086,0.0925,0.0964,0.0929,0.0884,0.0679,0.0367,0.0152,-0.008,-0.0072,-0.0156,-0.0154,-0.0152,-0.014,-0.0126,-0.017,-0.017,-0.0171,-0.0171,-0.0171,0,0.0501,0.0541,0.0602,0.0678,0.0746,0.0772,0.0869,0.0925,0.1008,0.1031,0.1043,0.0848,0.0648,0.0408,0.0071,-0.0129,-0.0145,-0.0196,-0.0168,-0.0166,-0.0164,-0.0152,-0.0185,-0.0186,-0.0187,-0.0187,0,0,0.0516,0.0578,0.0613,0.0727,0.0786,0.0883,0.0943,0.1021,0.1063,0.109,0.1061,0.1007,0.0716,0.0473,0.0202,0.0008,-0.0035,-0.0034,-0.0,0.0067,0.0071,-0.0119,-0.0095,0,0,0,0,0]}],[{"header":{"parameterUnit":"m.s-1","parameterCategory":2,"la1":30.2991,"la2":30.254,"lo1":-89.0895,"lo2":-89.0444,"dy":0.0017,"dx":0.0017,"nx":28,"ny":28,"refTime":"2025-08-30T21:00:00:Z","depth":"4","parameterNumber":2,"parameterNumberName":"U-component_of_CURRENTS"},"data":[0,0,0,0,0,0,0,0,0,0,0,0,0,0,0,0,0,0,0,0,0,0,0,0,0,0,0,0,0,0,0,0,0,0,0,0,0,0,0,0,0,0,0,0,0,0,0,0,0,0,0,0,0,0,0,0,0,0,0.1087,0.1088,0,0.1124,0.1124,0.1124,0.1162,0.1163,0.1163,0.1164,0.1197,0.1197,0.1197,0,0,0,0,0,0,0,0,0,0,0,0,0,0.1049,0.1049,0.1087,0.1088,0.1088,0.1123,0.1124,0.1124,0.1162,0.1163,0.1164,0.1164,0.1196,0.1197,0.1197,0,0,0,0,0,0,0,0,0,0,0,0,0,0.1072,0.1049,0.1087,0.1112,0.1115,0.1123,0.1124,0.1124,0.1162,0.1163,0.1164,0.1165,0.1196,0.1197,0.1197,0.118,0,0,0.1198,0.1198,0,0,0,0,0,0,0,0,0.1071,0.1073,0.1108,0.1111,0.1114,0.114,0.1122,0.1143,0.1162,0.1143,0.1164,0.1165,0.1177,0.1179,0.1182,0.1182,0.1183,0.1198,0.1199,0.1199,0.1199,0,0,0,0,0,0,0,0.1069,0.1072,0.11,0.1109,0.1112,0.1121,0.1126,0.1126,0.1153,0.1144,0.1148,0.1153,0.1179,0.1182,0.1183,0.1184,0.1198,0.1199,0.1199,0.1199,0.1272,0.1274,0,0,0,0,0,0,0.1066,0.107,0.1099,0.1101,0.1096,0.1121,0.1126,0.113,0.1153,0.1158,0.1153,0.1155,0.1181,0.1183,0.1185,0.1247,0.1199,0.1199,0.1199,0.127,0.1272,0.1274,0,0,0,0,0,0,0.1065,0.1068,0.1098,0.1088,0.1093,0.1121,0.1125,0.113,0.116,0.116,0.1165,0.1181,0.1182,0.1184,0.1221,0.1245,0.1199,0.12,0.1268,0.1271,0.1273,0.1319,0,0,0,0,0,0,0.1064,0.1067,0.1082,0.1088,0.1093,0.112,0.1124,0.113,0.1161,0.1165,0.1185,0.1187,0.1183,0.1221,0.1222,0.1245,0.12,0.1266,0.1269,0.1272,0.1316,0.1323,0.133,0,0,0,0,0,0.1062,0.1073,0.1082,0.1086,0.1107,0.1121,0.1125,0.1147,0.1162,0.1178,0.1202,0.1188,0.1242,0.1223,0.1223,0.1247,0.1265,0.1269,0.1272,0.1313,0.1322,0.1329,0,0,0,0,0,0,0.1066,0.1078,0.1088,0.1103,0.1121,0.1129,0.1149,0.1161,0.1192,0.1206,0.1206,0.1211,0.1255,0.1247,0.1226,0.128,0.1252,0.1256,0.1282,0.1291,0.1298,0.1303,0.12,0,0,0,0,0,0.1072,0.1084,0.1096,0.1113,0.1123,0.1141,0.1155,0.1171,0.1191,0.1207,0.1222,0.1243,0.1265,0.1276,0.1292,0.1315,0.1311,0.1333,0.134,0.1346,0.1353,0.1374,0.1384,0.1287,0.1287,0.1287,0,0,0.1078,0.1088,0.1096,0.1115,0.1132,0.1148,0.1153,0.1182,0.1205,0.1204,0.125,0.127,0.128,0.1315,0.1332,0.1313,0.1373,0.1351,0.1356,0.1359,0.1379,0.1389,0.1397,0.1289,0.1289,0.1288,0,0,0.1087,0.1107,0.1118,0.1133,0.1162,0.1173,0.1187,0.1212,0.1238,0.1276,0.1291,0.1329,0.1352,0.1369,0.1378,0.1431,0.1414,0.1439,0.1471,0.1492,0.15,0.1507,0.1514,0.1521,0.1437,0.1437,0.1437,0,0.11,0.1112,0.1126,0.1141,0.1161,0.1186,0.1208,0.123,0.1268,0.1295,0.1301,0.1368,0.1377,0.1422,0.1447,0.1445,0.1452,0.1435,0.15,0.1507,0.1513,0.1519,0.1526,0.1439,0.1439,0.1439,0.1439,0,0.1107,0.113,0.1141,0.1167,0.119,0.1216,0.1245,0.1282,0.1316,0.1338,0.1404,0.1427,0.1467,0.1477,0.1479,0.1533,0.1523,0.1509,0.1474,0.1525,0.1528,0.1535,0.1443,0.1442,0.1441,0.1441,0,0,0.1104,0.114,0.1147,0.1166,0.1211,0.1226,0.1277,0.1323,0.1361,0.1408,0.1459,0.1509,0.1532,0.1545,0.1558,0.1577,0.1627,0.1568,0.1568,0.1567,0.1672,0.1584,0.1582,0.1627,0.1628,0.1629,0.1656,0,0.1114,0.1141,0.1162,0.1201,0.1219,0.1264,0.1304,0.1352,0.14,0.1454,0.1497,0.1549,0.1553,0.1584,0.1609,0.163,0.1647,0.162,0.163,0.163,0.1539,0.1588,0.1634,0.166,0.1662,0.1663,0.1664,0,0.1112,0.1133,0.1169,0.1219,0.1233,0.1265,0.1341,0.1379,0.1457,0.1497,0.1561,0.1595,0.1658,0.1643,0.1702,0.1689,0.169,0.1692,0.1692,0.1598,0.1554,0.1601,0.1675,0.1674,0.1674,0.1673,0.1672,0,0.1089,0.1138,0.1169,0.1186,0.1244,0.1283,0.1324,0.1399,0.1447,0.1533,0.1581,0.1647,0.1698,0.1718,0.1749,0.173,0.1797,0.1762,0.1679,0.1673,0.1721,0.1714,0.1791,0.1791,0.1791,0.1791,0.1791,0,0.1076,0.1104,0.1164,0.1178,0.1227,0.1274,0.134,0.1391,0.1479,0.1528,0.1607,0.1656,0.1723,0.1772,0.1771,0.1757,0.1817,0.1695,0.1678,0.174,0.1735,0.1725,0.1717,0.1792,0.1792,0.1792,0.1791,0,0.1039,0.1079,0.1117,0.1187,0.1215,0.125,0.1348,0.1386,0.148,0.1551,0.1586,0.169,0.1742,0.1795,0.183,0.1781,0.1773,0.1748,0.1824,0.181,0.1622,0.1617,0.164,0.1637,0.1635,0.1633,0.1631,0,0.1018,0.1034,0.1114,0.1138,0.1175,0.1239,0.1279,0.1377,0.1417,0.1551,0.1572,0.1676,0.1726,0.1716,0.1769,0.1764,0.1741,0.1721,0.1657,0.1628,0.161,0.1608,0.1605,0.1627,0.1627,0.1626,0.1625,0,0.0976,0.1017,0.1045,0.1098,0.1144,0.1187,0.1252,0.1279,0.1381,0.1485,0.1524,0.1558,0.1618,0.1646,0.1673,0.166,0.1724,0.1695,0.1699,0.1638,0.1613,0.1597,0.1597,0.1617,0.1618,0.1619,0.162,0,0.0948,0.0958,0.1003,0.1039,0.1094,0.111,0.1157,0.1198,0.1255,0.1394,0.1401,0.1504,0.1596,0.1593,0.1612,0.1608,0.1564,0.1495,0.1508,0.1517,0.1467,0.1416,0.1354,0,0,0,0,0,0.0908,0.0907,0.0937,0.0966,0.1017,0.1048,0.1123,0.117,0.1273,0.1263,0.1329,0.1372,0.1409,0.1467,0.1434,0.1552,0.1571,0.1507,0.1497,0.1572,0.1581,0.1534,0,0,0,0,0,0,0.0877,0.0901,0.0908,0.0898,0.0906,0.0948,0.0991,0.106,0.1061,0.1172,0.1203,0.1286,0.1347,0.1413,0.1408,0.1423,0.1387,0.1573,0.1569,0.1567,0.1575,0.1583,0.1537,0,0,0,0,0]},{"header":{"parameterUnit":"m.s-1","parameterCategory":2,"la1":30.2991,"la2":30.254,"lo1":-89.0895,"lo2":-89.0444,"dy":0.0017,"dx":0.0017,"nx":28,"ny":28,"refTime":"2025-08-30T21:00:00:Z","depth":"4","parameterNumber":3,"parameterNumberName":"V-component_of_CURRENTS"},"data":[0,0,0,0,0,0,0,0,0,0,0,0,0,0,0,0,0,0,0,0,0,0,0,0,0,0,0,0,0,0,0,0,0,0,0,0,0,0,0,0,0,0,0,0,0,0,0,0,0,0,0,0,0,0,0,0,0,0,0.0155,0.0154,0,0.0133,0.0132,0.0132,0.0116,0.0116,0.0116,0.0115,0.0065,0.0064,0.0063,0,0,0,0,0,0,0,0,0,0,0,0,0,0.0163,0.0163,0.0155,0.0154,0.0154,0.0133,0.0132,0.0132,0.0116,0.0116,0.0116,0.0115,0.0066,0.0064,0.0063,0,0,0,0,0,0,0,0,0,0,0,0,0,0.0152,0.0163,0.0155,0.0144,0.0143,0.0133,0.0132,0.0132,0.0116,0.0116,0.0116,0.0115,0.0066,0.0064,0.0062,0.0054,0,0,0.0057,0.0056,0,0,0,0,0,0,0,0,0.0153,0.0152,0.0146,0.0145,0.0143,0.0127,0.0117,0.0105,0.0116,0.0126,0.0115,0.0115,0.0084,0.008,0.0076,0.0052,0.005,0.0057,0.0055,0.0055,0.0054,0,0,0,0,0,0,0,0.0153,0.0152,0.0146,0.0145,0.0144,0.0133,0.0132,0.0115,0.0105,0.0125,0.0124,0.0122,0.0083,0.0078,0.0075,0.0049,0.0057,0.0055,0.0054,0.0053,-0.0002,-0.0003,0,0,0,0,0,0,0.0158,0.0153,0.0146,0.0145,0.0148,0.0133,0.0132,0.0132,0.0106,0.0102,0.0122,0.0121,0.0082,0.0077,0.0073,0.0061,0.0055,0.0053,0.0052,-0.0002,-0.0002,-0.0003,0,0,0,0,0,0,0.0158,0.0158,0.0147,0.0149,0.0147,0.0134,0.0134,0.0132,0.0129,0.0104,0.01,0.0122,0.0081,0.0076,0.0059,0.0059,0.0052,0.005,-0.0002,-0.0002,-0.0003,0.0036,0,0,0,0,0,0,0.0159,0.0158,0.0161,0.0149,0.0147,0.0145,0.0134,0.0131,0.0129,0.0127,0.0103,0.0098,0.0081,0.0062,0.0058,0.0056,0.0049,-0.0001,-0.0002,-0.0002,0.0035,0.0037,0.0038,0,0,0,0,0,0.0159,0.0165,0.0162,0.0161,0.0151,0.0145,0.0143,0.0133,0.0129,0.013,0.0112,0.0099,0.0054,0.0061,0.0055,0.0053,-0.0001,-0.0002,-0.0002,0.0035,0.0037,0.0038,0,0,0,0,0,0,0.0171,0.0164,0.016,0.0164,0.0157,0.0143,0.0144,0.0136,0.0124,0.0123,0.0098,0.0092,0.0076,0.0058,0.0065,0.0033,0.0023,0.0021,0.0053,0.0054,0.0056,0.0065,0.0047,0,0,0,0,0,0.0175,0.0179,0.0168,0.0172,0.017,0.0158,0.0155,0.0148,0.0135,0.013,0.0113,0.009,0.0067,0.0057,0.0036,0.0022,0.0004,0.0014,0.0016,0.0017,0.0019,-0.001,-0.001,-0.0005,-0.0005,-0.0005,0,0,0.0182,0.0178,0.018,0.0175,0.0169,0.017,0.0156,0.0154,0.0153,0.0126,0.012,0.0097,0.0065,0.0048,0.0039,0.0034,0.0006,0.0016,0.0018,0.0019,-0.0011,-0.0011,-0.0011,-0.0006,-0.0006,-0.0006,0,0,0.0195,0.0192,0.0199,0.0196,0.019,0.0182,0.0183,0.0172,0.0165,0.0156,0.0132,0.0111,0.0083,0.0059,0.0042,0.0038,0.0016,0.0029,0.0045,0.0018,0.0017,0.0017,-0.0002,-0.0004,0.003,0.003,0.003,0,0.0202,0.021,0.02,0.0205,0.0206,0.019,0.0198,0.0187,0.0172,0.0166,0.0159,0.0112,0.0087,0.0059,0.0057,0.0043,0.0027,0.0045,0.0021,0.002,0.0019,-0.0,-0.0003,0.0032,0.0032,0.0031,0.0031,0,0.0218,0.0226,0.023,0.0232,0.0231,0.0235,0.0222,0.0217,0.0207,0.0195,0.0171,0.0136,0.0109,0.0093,0.0075,0.005,0.0042,0.0028,0.0021,0.0021,0.0001,-0.0003,0.0034,0.0034,0.0033,0.0033,0,0,0.023,0.024,0.0242,0.0253,0.0247,0.0251,0.0246,0.0238,0.0239,0.0213,0.0208,0.0162,0.0145,0.0124,0.0094,0.0067,0.0046,0.0048,0.0046,0.0039,-0.0008,-0.0009,-0.0014,0.003,0.0029,0.0029,-0.0016,0,0.0246,0.0266,0.0265,0.0286,0.0297,0.0283,0.0283,0.0272,0.026,0.025,0.0205,0.019,0.0156,0.0147,0.0113,0.0064,0.0036,0.006,-0.0015,-0.0017,-0.0011,-0.0018,0.0026,-0.002,-0.0021,-0.0021,-0.0022,0,0.0263,0.0275,0.0301,0.0319,0.0322,0.0331,0.0334,0.0331,0.0305,0.0295,0.0266,0.0237,0.0193,0.0167,0.0082,0.01,0.005,0.0009,0.0006,-0.0011,-0.0026,-0.0023,-0.0029,-0.0029,-0.0028,-0.0028,-0.0027,0,0.0279,0.0302,0.0327,0.0332,0.0345,0.0354,0.0358,0.0345,0.0354,0.0326,0.0332,0.027,0.0249,0.0173,0.0091,0.0088,0.0,-0.0016,-0.0067,-0.0067,-0.0069,-0.0068,-0.0078,-0.0078,-0.0078,-0.0078,-0.0078,0,0.0296,0.0317,0.034,0.0353,0.0385,0.0382,0.0412,0.04,0.04,0.0414,0.0361,0.0357,0.0251,0.0191,0.0106,0.0011,0.001,-0.0065,-0.0081,-0.0051,-0.0048,-0.0071,-0.007,-0.008,-0.0079,-0.0079,-0.0079,0,0.031,0.0323,0.0356,0.0382,0.0396,0.0418,0.0458,0.0476,0.0468,0.0484,0.0481,0.0425,0.0344,0.0238,0.0115,0.0041,-0.0056,-0.0091,-0.0041,-0.0054,-0.0108,-0.0105,-0.0151,-0.0151,-0.0152,-0.0152,-0.0152,0,0.0317,0.0336,0.0383,0.041,0.0427,0.0466,0.0494,0.0506,0.053,0.0525,0.0534,0.0471,0.0418,0.0252,0.0129,-0.0032,-0.006,-0.0111,-0.0123,-0.0105,-0.0117,-0.0113,-0.0108,-0.0153,-0.0153,-0.0153,-0.0153,0,0.033,0.0351,0.038,0.0437,0.0479,0.0528,0.0569,0.0594,0.0605,0.0607,0.058,0.0492,0.04,0.0259,0.0136,0.0017,-0.0079,-0.0115,-0.0116,-0.0128,-0.0108,-0.0119,-0.0114,-0.0154,-0.0154,-0.0154,-0.0154,0,0.0341,0.0366,0.0409,0.0459,0.0516,0.0567,0.0592,0.0619,0.0641,0.0633,0.0623,0.0518,0.0456,0.0284,0.017,0.0055,0.0017,-0.003,-0.0035,-0.0035,0.0006,0.0048,0.0036,0,0,0,0,0,0.0347,0.0376,0.0426,0.0482,0.0541,0.0575,0.0631,0.065,0.0667,0.0655,0.064,0.0552,0.0381,0.0309,0.0193,0.0152,-0.0008,0.0011,-0.0066,-0.0162,-0.016,-0.0133,0,0,0,0,0,0,0.035,0.0395,0.0424,0.0493,0.0535,0.0602,0.0639,0.0653,0.0647,0.0644,0.056,0.0515,0.0354,0.0448,0.0189,0.0154,0.0086,-0.0066,-0.0069,-0.0163,-0.0161,-0.016,-0.0131,0,0,0,0,0]}]]